Wind_Speed
5 4 6 11 10 5 3 3 4 5 9 3 7 5 9 18 24 9 20 19 18 20 17 17 17 15 16 15 12 8 1 4 8 10 10 12 15 16 14 15 16 19 22 24
4 5 13 6 5 7 6 4 6 5 6 1 8 8 11 15 7 8 25 20 17 16 17 20 21 22 25 24 22 18 13 7 3 1 1 3 6 11 14 13 13 16 19 22
8 8 8 7 5 5 3 4 5 7 5 4 3 7 7 2 19 22 20 20 17 18 20 21 22 24 25 28 29 26 22 16 11 6 2 4 5 7 9 9 12 12 16 20
6 10 6 8 6 6 3 4 6 4 2 3 3 5 6 1 8 9 15 18 18 18 19 20 22 24 27 27 25 25 25 24 22 17 12 10 7 4 2 4 8 10 14 17
6 6 4 3 6 7 8 3 2 3 3 2 5 1 7 9 4 6 13 19 18 16 17 19 20 20 20 21 22 22 21 20 21 20 18 15 12 7 3 6 8 9 10 9
6 1 3 6 2 3 4 2 3 3 3 1 8 6 5 5 7 6 13 19 19 16 15 16 16 16 19 18 19 19 19 19 18 17 16 15 13 11 7 6 6 7 8 9
2 5 2 3 2 4 3 4 2 3 1 6 3 2 8 3 5 11 16 22 18 14 13 13 14 15 15 15 15 15 15 15 16 16 15 15 14 13 12 12 12 11 9 10
4 4 8 4 5 6 6 5 4 5 3 5 6 5 4 8 25 28 24 21 15 12 10 10 10 11 12 13 12 11 11 12 12 12 14 15 15 16 16 16 15 14 14 14
5 4 2 2 1 6 4 4 3 2 1 2 4 4 5 8 11 17 17 14 12 10 7 6 7 9 10 10 10 11 13 13 13 13 12 12 13 14 15 16 16 17 17 17
2 1 2 2 3 2 3 5 2 2 1 5 5 4 4 5 9 7 9 12 10 7 4 1 3 6 6 7 9 10 11 13 14 14 14 13 12 13 15 16 17 18 19 20
3 4 4 4 5 5 1 1 2 4 4 4 2 5 5 7 10 10 14 15 14 11 7 6 4 4 4 4 6 9 11 12 13 14 14 15 16 16 17 18 20 21 21 22
1 4 4 8 4 5 6 6 6 3 5 3 3 9 3 7 14 18 19 18 16 15 11 8 6 3 0 3 4 7 11 14 16 17 17 19 22 24 25 25 24 25 26 26
5 1 2 9 4 3 3 2 4 3 2 7 6 6 2 6 7 14 16 18 18 13 8 9 9 7 5 4 4 6 9 13 17 19 22 23 25 28 30 33 33 31 32 30
6 3 7 9 4 4 2 4 2 4 3 3 10 15 19 9 7 11 17 18 16 15 13 12 11 10 9 7 7 8 10 14 17 19 21 23 27 30 32 32 33 35 37 40
5 5 3 5 4 3 4 8 7 7 11 7 20 17 19 14 5 3 3 3 13 14 16 15 15 13 10 10 11 12 15 19 21 23 24 25 29 31 33 35 37 39 42 43
2 2 2 4 4 4 7 15 11 13 15 16 19 23 18 4 4 6 8 7 9 8 11 15 14 12 13 13 14 14 15 17 21 22 24 27 32 34 35 38 41 45 48 50
5 5 3 5 2 3 7 14 15 10 11 7 9 10 3 4 7 6 6 4 5 6 7 7 10 14 14 14 15 17 20 23 23 24 27 31 32 36 38 43 47 50 52 54
6 6 3 4 3 1 8 3 5 8 7 5 2 4 8 7 8 5 5 9 11 9 10 12 13 13 11 15 18 20 22 24 26 30 32 34 36 40 43 47 49 51 51 53
8 5 1 4 5 6 12 6 6 4 7 6 6 4 13 9 3 6 5 4 4 9 13 13 13 14 15 18 20 22 23 26 30 32 34 38 42 45 46 47 48 48 50 52
7 5 5 3 6 9 6 4 10 7 9 11 13 11 12 6 1 4 10 14 19 22 20 17 16 19 22 21 23 26 28 30 31 34 39 43 44 44 46 47 47 48 49 51
3 1 15 14 6 7 6 7 8 5 8 6 11 19 14 5 10 14 18 16 18 22 18 18 21 23 22 22 25 27 29 29 34 39 43 43 43 43 44 46 46 48 49 48
7 7 5 2 1 8 12 4 7 8 9 8 13 16 16 18 22 23 20 19 20 20 20 22 22 22 22 25 26 27 28 32 38 40 41 42 41 42 43 43 46 45 41 41
2 8 5 9 7 6 22 11 15 12 12 12 13 19 25 26 23 21 22 23 21 23 24 24 24 24 24 25 26 26 29 35 39 40 40 40 41 41 40 42 41 38 36 38
5 3 3 4 6 12 22 24 23 24 23 24 24 23 22 25 21 24 24 25 24 26 25 26 26 25 25 24 24 27 31 35 37 39 38 39 41 41 41 38 34 34 35 37
8 6 5 6 12 18 25 31 34 34 31 33 31 28 27 23 23 25 27 27 28 28 27 27 25 25 24 23 25 28 31 34 36 35 35 37 39 39 41 36 33 34 33 32
19 18 11 13 23 18 23 29 29 27 26 25 22 22 23 25 26 27 28 27 27 27 26 26 24 25 23 24 27 27 30 32 33 33 34 36 37 38 38 36 37 31 33 30
Wind_Direction
188 113 197 217 205 215 287 256 258 268 277 327 279 265 266 285 286 351 111 101 86 70 61 57 56 55 56 57 60 68 145 232 245 243 242 240 244 243 246 246 250 251 250 252
59 221 226 228 223 213 224 242 279 285 278 334 280 288 288 271 295 142 132 115 104 92 76 65 63 60 58 58 58 59 61 67 87 176 236 256 240 243 249 245 253 253 259 261
173 217 193 179 248 258 238 219 241 232 315 310 338 301 263 325 89 98 104 108 95 87 81 73 66 63 62 58 56 55 54 53 57 59 36 284 256 238 240 242 244 254 255 262
226 241 254 277 234 164 255 219 219 231 80 228 46 280 281 146 91 82 94 95 93 90 85 76 68 65 59 57 56 55 55 55 53 48 45 47 42 42 344 277 263 270 265 254
239 168 176 169 212 151 221 106 192 228 215 75 268 254 259 108 146 137 120 109 98 92 88 83 74 66 61 54 46 43 42 46 47 45 46 46 46 36 342 295 304 298 280 267
233 153 196 205 157 153 143 64 330 59 109 330 233 180 265 177 175 150 126 114 107 99 89 80 73 63 51 40 32 26 23 25 29 31 34 37 40 36 23 3 331 317 307 296
203 219 195 169 123 18 82 86 318 348 16 217 171 187 239 40 127 136 123 117 110 103 92 80 65 44 38 32 26 24 24 24 22 16 14 19 27 27 27 25 17 1 331 301
190 290 164 181 180 183 174 168 160 237 235 263 346 263 298 71 87 104 113 112 110 102 92 80 51 34 25 23 17 17 23 27 27 25 25 22 17 17 19 23 22 15 11 6
185 242 44 45 112 139 187 173 180 126 71 54 227 285 98 81 90 103 119 120 119 117 105 67 25 22 16 8 25 38 37 41 44 42 39 31 25 17 17 16 9 8 5 3
171 259 253 186 92 342 142 157 92 29 228 243 274 262 211 174 143 136 140 137 139 144 153 21 338 346 353 5 14 27 33 33 30 29 26 23 20 13 5 356 353 354 352 349
126 136 256 137 181 161 90 223 212 171 177 202 220 256 181 160 162 165 173 172 182 189 215 240 252 287 338 19 27 22 22 22 17 11 9 1 355 355 350 347 346 342 339 334
179 161 213 230 271 167 185 212 184 184 261 251 226 257 140 155 171 175 189 199 206 212 222 239 216 176 112 24 15 12 7 3 358 351 349 349 346 345 342 339 336 332 329 328
179 199 359 329 26 32 144 130 107 94 105 240 248 256 154 162 186 209 208 216 216 223 202 173 163 165 206 247 301 333 345 345 340 336 333 333 332 334 334 333 330 329 325 324
129 173 177 223 175 111 275 271 159 150 163 238 246 274 277 261 233 253 253 247 231 224 213 204 223 230 243 262 281 306 320 326 326 328 326 320 322 325 324 322 321 321 321 321
144 204 225 268 297 113 225 256 267 219 245 228 267 268 268 287 282 234 220 227 201 205 206 221 219 227 249 270 283 298 311 318 318 321 322 318 318 318 316 316 316 316 314 311
147 244 108 301 259 266 264 262 257 252 257 255 256 263 274 266 232 200 187 187 184 180 219 216 218 237 250 257 263 273 277 292 307 307 309 309 312 312 313 314 312 311 309 308
140 129 88 260 261 39 310 250 240 232 229 225 244 251 169 225 224 181 201 210 212 236 250 246 254 268 261 246 261 275 287 302 308 305 305 307 309 310 311 311 309 308 307 305
141 120 123 217 47 270 243 276 204 203 236 210 149 222 207 190 176 195 257 277 280 259 252 254 263 262 249 267 277 285 294 301 304 307 309 310 311 311 310 309 308 307 306 304
183 151 164 170 206 306 297 236 205 188 273 187 196 205 183 172 208 262 302 263 270 266 278 275 264 266 271 276 283 292 298 302 305 309 311 311 312 312 312 311 310 309 306 303
172 178 175 120 186 211 236 155 138 119 275 215 215 191 172 156 154 243 309 286 279 279 285 281 269 274 278 281 292 297 302 306 309 311 313 314 315 316 316 315 313 312 309 306
115 69 209 224 229 279 238 195 149 111 259 168 202 185 180 186 217 286 305 284 283 278 270 264 267 270 273 285 293 297 302 307 312 314 315 316 318 318 318 317 317 316 314 310
157 169 204 106 115 269 185 139 166 219 173 199 199 205 221 252 278 289 291 282 285 267 266 265 264 268 278 290 295 301 305 312 313 314 316 319 320 320 321 321 322 318 314 312
246 201 179 185 205 208 187 216 245 236 212 212 234 265 272 270 276 287 285 286 276 262 257 259 272 276 285 291 298 302 311 314 313 316 318 320 322 324 327 327 321 319 321 316
266 122 212 83 219 225 249 256 258 253 252 263 276 277 272 275 273 286 284 276 275 263 260 265 272 278 284 291 297 306 314 313 314 317 320 323 325 328 332 326 327 325 323 320
227 158 217 256 252 260 261 262 266 269 268 273 277 277 275 273 273 280 279 272 269 260 263 268 276 281 288 292 300 310 313 312 314 317 321 326 328 333 329 329 334 327 326 315
235 241 240 250 255 240 255 265 271 273 268 264 270 269 266 273 282 285 280 267 256 259 264 271 276 283 287 293 301 312 310 312 314 317 324 328 331 333 330 332 333 339 330 313
Height
1531 1537 1541 1534 1532 1532 1532 1534 1536 1529 1521 1522 1522 1522 1517 1511 1507 1508 1510 1514 1515 1514 1514 1510 1508 1506 1504 1502 1500 1499 1498 1498 1499 1500 1501 1502 1505 1505 1507 1508 1508 1509 1511 1512
1534 1537 1525 1523 1526 1529 1532 1534 1536 1528 1520 1522 1520 1520 1511 1504 1504 1505 1507 1510 1512 1513 1512 1512 1509 1508 1505 1504 1502 1501 1500 1499 1498 1498 1499 1500 1502 1503 1505 1507 1507 1506 1507 1508
1529 1521 1518 1521 1523 1525 1526 1530 1530 1532 1523 1520 1521 1524 1512 1502 1508 1509 1512 1511 1513 1512 1511 1511 1511 1510 1509 1507 1506 1505 1504 1502 1500 1498 1499 1500 1500 1502 1501 1504 1505 1506 1505 1504
1522 1515 1516 1520 1523 1524 1530 1520 1521 1523 1529 1538 1524 1539 1515 1506 1513 1514 1515 1514 1514 1514 1513 1514 1514 1513 1513 1513 1512 1510 1508 1506 1504 1504 1501 1498 1499 1500 1501 1501 1501 1502 1502 1503
1517 1515 1517 1519 1518 1518 1523 1519 1521 1521 1527 1530 1529 1540 1516 1508 1515 1514 1513 1513 1516 1516 1515 1514 1515 1517 1516 1516 1516 1514 1512 1510 1508 1506 1504 1502 1500 1500 1499 1499 1500 1500 1498 1498
1515 1513 1512 1512 1512 1513 1517 1519 1521 1525 1533 1547 1524 1529 1514 1504 1505 1514 1515 1517 1517 1517 1519 1518 1519 1520 1520 1520 1519 1517 1515 1513 1511 1509 1508 1505 1502 1502 1501 1498 1497 1497 1498 1496
1513 1511 1509 1509 1513 1515 1517 1527 1541 1546 1553 1537 1518 1522 1507 1497 1497 1506 1514 1517 1518 1519 1520 1520 1521 1522 1522 1521 1521 1519 1516 1512 1511 1511 1511 1509 1505 1504 1502 1500 1498 1497 1497 1495
1519 1519 1510 1508 1509 1515 1519 1520 1538 1545 1547 1538 1521 1524 1504 1510 1505 1511 1519 1519 1520 1520 1522 1522 1522 1521 1522 1523 1521 1521 1518 1514 1513 1512 1511 1510 1509 1507 1505 1502 1500 1499 1497 1494
1514 1512 1505 1505 1506 1508 1514 1521 1518 1529 1551 1547 1522 1512 1520 1517 1514 1516 1522 1520 1520 1520 1523 1522 1522 1521 1521 1521 1521 1519 1518 1516 1514 1513 1511 1511 1510 1511 1510 1505 1502 1500 1497 1494
1507 1515 1506 1507 1507 1508 1509 1512 1526 1535 1550 1553 1522 1515 1508 1519 1517 1518 1520 1519 1519 1520 1522 1521 1520 1520 1520 1519 1519 1519 1516 1515 1514 1513 1513 1513 1512 1511 1508 1507 1503 1498 1495 1494
1504 1510 1513 1506 1508 1508 1513 1514 1514 1518 1526 1533 1541 1515 1506 1509 1511 1513 1514 1514 1515 1516 1517 1518 1518 1517 1518 1519 1518 1517 1518 1514 1513 1513 1512 1512 1512 1507 1507 1504 1500 1497 1493 1491
1506 1511 1523 1510 1504 1505 1507 1511 1512 1525 1524 1527 1519 1510 1506 1507 1506 1506 1510 1510 1511 1512 1513 1514 1515 1516 1517 1517 1518 1518 1514 1513 1511 1511 1510 1507 1508 1503 1501 1499 1496 1494 1491 1487
1502 1514 1534 1518 1511 1505 1506 1510 1513 1517 1524 1520 1523 1517 1509 1509 1509 1508 1507 1508 1509 1510 1511 1512 1513 1513 1515 1516 1516 1514 1513 1512 1510 1509 1506 1504 1502 1497 1493 1492 1490 1486 1485 1481
1498 1505 1513 1510 1511 1509 1515 1513 1516 1519 1537 1528 1519 1512 1502 1505 1508 1507 1506 1505 1506 1506 1507 1509 1511 1512 1513 1512 1511 1511 1510 1509 1508 1506 1504 1501 1498 1494 1491 1488 1485 1481 1477 1471
1499 1513 1508 1504 1506 1509 1509 1511 1510 1516 1514 1522 1504 1508 1499 1500 1501 1502 1501 1500 1501 1503 1504 1504 1506 1508 1509 1509 1508 1506 1505 1505 1503 1502 1499 1497 1494 1490 1486 1482 1477 1472 1470 1466
1497 1513 1511 1518 1509 1510 1512 1504 1508 1509 1509 1508 1504 1501 1496 1497 1498 1499 1500 1499 1499 1500 1500 1500 1502 1503 1502 1502 1501 1501 1500 1499 1498 1496 1494 1491 1487 1483 1479 1475 1470 1466 1461 1455
1503 1511 1528 1529 1514 1518 1527 1497 1497 1495 1492 1494 1500 1495 1496 1496 1495 1497 1497 1497 1497 1497 1497 1498 1499 1498 1498 1497 1496 1496 1494 1493 1490 1488 1486 1483 1479 1474 1470 1465 1459 1454 1447 1442
1502 1514 1526 1540 1538 1549 1491 1486 1486 1489 1489 1490 1493 1493 1490 1491 1493 1494 1493 1492 1492 1493 1493 1493 1493 1493 1493 1492 1491 1490 1488 1486 1484 1481 1477 1473 1468 1463 1458 1453 1447 1440 1434 1427
1493 1502 1527 1531 1550 1513 1488 1483 1484 1484 1488 1483 1485 1485 1486 1489 1490 1489 1490 1489 1489 1489 1489 1488 1488 1488 1487 1486 1485 1483 1481 1479 1476 1472 1468 1463 1458 1452 1446 1440 1434 1428 1420 1413
1492 1496 1506 1545 1526 1526 1487 1482 1481 1484 1491 1476 1476 1479 1482 1485 1492 1486 1486 1486 1485 1485 1483 1482 1482 1481 1481 1479 1478 1476 1473 1470 1467 1463 1458 1452 1447 1441 1434 1427 1420 1414 1407 1398
1509 1516 1500 1498 1515 1501 1481 1478 1481 1504 1484 1470 1473 1475 1478 1480 1479 1478 1479 1479 1479 1478 1477 1477 1476 1475 1474 1472 1471 1468 1466 1462 1457 1452 1447 1442 1437 1430 1423 1415 1409 1401 1392 1384
1488 1502 1511 1522 1531 1501 1470 1478 1482 1471 1466 1468 1470 1472 1473 1473 1472 1472 1472 1472 1471 1471 1470 1470 1470 1469 1467 1465 1463 1460 1457 1453 1448 1443 1438 1432 1427 1421 1413 1405 1397 1390 1382 1374
1482 1467 1481 1478 1478 1462 1463 1461 1461 1461 1462 1464 1465 1466 1466 1466 1465 1465 1465 1464 1463 1464 1463 1463 1463 1461 1460 1457 1455 1452 1449 1444 1438 1433 1428 1423 1417 1410 1403 1395 1388 1380 1373 1366
1462 1459 1465 1466 1458 1457 1458 1456 1456 1456 1456 1457 1457 1458 1458 1459 1458 1458 1458 1457 1456 1456 1456 1456 1455 1454 1453 1450 1448 1444 1440 1435 1430 1425 1420 1414 1407 1400 1393 1389 1381 1372 1365 1359
1455 1457 1456 1457 1453 1451 1449 1447 1447 1447 1449 1449 1449 1449 1449 1450 1450 1450 1449 1450 1449 1448 1448 1447 1446 1445 1444 1442 1440 1437 1431 1427 1422 1417 1412 1406 1399 1391 1386 1380 1373 1365 1360 1355
1446 1442 1449 1443 1442 1443 1440 1438 1438 1439 1439 1440 1441 1441 1442 1442 1441 1441 1441 1441 1441 1441 1440 1439 1438 1437 1436 1434 1432 1428 1424 1419 1414 1409 1404 1398 1390 1384 1379 1370 1361 1361 1354 1349